Wind_Speed
40 39 38 37 35 33 32 32 31 30 30 30 30 30 30 30 30 30 30 30 30 30 30 29 29 29 28 28 27 27 27 26 26 26 26 26 25 25 24 23 23 22 22 22 22 21 21 19 17 15 14 13 12 12 11 10 10 11 11 12 12 12 12 13 13 14 15 16 17 18 19 20 21 22 22 23 24 25 27 29 31 33 35 37 38 39
38 37 36 35 33 32 31 30 29 29 29 29 29 30 30 30 30 30 30 30 30 30 30 29 29 28 28 28 27 27 27 26 26 26 25 25 25 24 24 23 22 22 21 21 20 20 20 19 17 15 14 13 12 12 11 11 11 12 12 13 13 13 14 14 14 15 16 16 17 18 19 20 21 21 22 23 23 24 25 26 27 29 31 32 34 35
36 35 34 33 32 30 29 29 29 29 29 29 29 30 30 30 30 30 30 30 30 30 29 29 28 28 28 27 27 27 26 26 26 25 25 24 24 24 24 23 22 21 21 20 19 19 19 18 17 16 15 14 13 12 12 12 12 12 13 13 14 15 15 16 16 16 17 18 19 20 20 21 22 22 23 24 24 25 26 27 28 29 30 31 32 34
35 34 33 32 31 30 29 29 29 29 29 29 29 30 30 30 30 30 30 30 30 29 29 29 28 28 27 27 27 26 26 26 25 25 24 24 23 23 23 23 22 22 21 20 19 19 18 18 17 17 16 15 14 14 13 13 13 14 14 15 16 16 17 17 18 18 19 20 21 22 22 23 24 24 25 26 27 28 29 29 30 31 32 33 34 34
34 33 32 31 30 29 29 29 29 29 29 29 30 30 30 30 30 30 30 30 30 29 29 29 28 28 28 27 27 27 26 26 25 25 24 24 23 23 23 22 22 22 22 21 20 19 18 18 17 17 16 16 15 15 15 15 15 16 16 17 18 19 19 20 20 21 22 22 23 24 24 25 25 26 27 28 29 30 31 32 33 34 34 35 35 35
33 32 32 31 30 30 30 29 29 30 30 30 30 30 30 30 30 30 30 30 30 30 29 29 29 29 28 28 28 27 27 26 26 25 25 24 24 23 23 22 22 22 22 22 21 20 19 18 18 17 17 17 17 17 17 17 17 18 19 20 20 21 22 22 23 23 23 24 24 25 25 26 26 27 28 29 30 32 33 34 35 36 37 37 37 37
33 32 32 31 31 30 30 30 30 30 30 31 31 31 31 30 30 30 30 30 30 30 30 30 29 29 29 29 28 28 28 27 27 26 26 25 24 24 23 23 23 22 22 22 22 22 21 20 19 19 18 18 18 18 18 19 19 20 20 21 22 22 23 23 24 24 24 24 25 25 25 26 27 27 28 29 30 31 33 34 35 37 37 38 39 39
33 32 32 31 31 31 31 31 31 31 31 31 31 31 31 31 31 31 31 31 31 31 31 30 30 30 30 29 29 29 28 28 28 27 26 26 25 25 24 24 23 23 23 23 23 23 23 22 22 21 20 20 19 19 19 20 20 21 21 22 22 23 23 23 24 24 24 24 24 25 25 26 27 27 28 29 30 31 32 33 34 35 37 38 39 39
32 32 32 32 32 32 32 32 32 32 32 31 31 31 31 31 31 31 31 31 31 31 31 31 31 30 30 30 30 29 29 29 28 28 27 27 26 26 25 25 24 24 24 23 23 23 23 24 24 24 23 23 22 21 21 21 21 21 22 22 23 23 24 24 24 24 24 24 25 25 26 26 27 27 28 29 30 30 31 32 33 34 35 36 37 38
33 32 32 32 32 32 32 32 32 32 32 32 32 32 32 32 32 31 31 31 32 32 32 31 31 31 31 31 30 30 30 29 29 28 28 27 27 26 26 26 25 25 25 25 24 24 24 25 25 25 25 25 25 25 24 23 23 23 23 23 24 24 25 25 25 26 26 26 26 26 26 27 27 28 29 29 30 30 31 32 32 33 34 35 35 36
33 33 33 33 33 33 33 33 33 32 32 32 32 32 32 32 32 32 32 32 32 32 32 32 32 31 31 31 31 31 30 30 30 29 29 28 28 27 27 27 27 26 26 26 26 26 25 25 26 26 26 26 27 27 26 26 26 26 25 25 25 26 26 26 27 27 27 28 28 28 28 29 29 29 30 30 31 31 32 32 33 33 34 34 35 36
33 33 33 33 33 33 33 33 33 33 33 33 33 32 32 32 32 32 32 32 32 32 32 32 32 32 32 31 31 31 31 30 30 30 29 29 29 28 28 28 28 27 27 27 27 27 27 27 27 27 27 27 27 27 28 28 28 28 28 27 27 27 27 28 28 28 29 29 29 30 30 30 31 31 31 32 32 32 33 33 33 34 35 35 36 36
33 33 33 33 33 33 33 33 33 33 33 33 33 33 33 33 33 33 33 33 33 33 33 32 32 32 32 32 32 32 31 31 31 30 30 30 29 29 29 29 29 29 28 28 28 28 28 28 28 28 28 28 28 28 28 29 29 29 29 29 29 29 29 29 29 30 30 30 31 31 31 32 32 32 33 33 33 34 34 34 35 35 36 36 37 37
33 33 33 33 33 33 33 33 34 33 33 33 33 33 33 33 33 33 33 33 33 33 33 33 33 32 32 32 32 32 32 32 31 31 31 30 30 30 30 30 30 30 30 29 29 29 29 30 30 30 30 30 30 30 30 30 30 30 30 30 30 30 30 30 30 31 31 31 32 32 32 33 33 34 34 34 34 35 35 35 36 36 37 37 38 38
33 33 33 33 33 33 34 34 34 34 34 34 34 34 34 34 34 34 34 34 34 33 33 33 33 33 33 33 33 33 32 32 32 32 32 31 31 31 31 31 31 31 31 31 31 31 31 31 31 31 31 31 31 31 31 31 31 31 31 31 31 31 32 32 32 32 32 33 33 33 34 34 34 35 35 36 36 36 37 37 37 38 38 38 39 39
33 33 33 33 33 33 33 34 34 34 34 34 34 34 34 34 34 34 34 34 34 34 34 34 34 33 33 33 33 33 33 33 33 33 33 32 32 32 32 32 32 32 32 32 32 32 32 32 32 32 32 32 32 33 33 33 33 33 33 33 33 33 33 33 33 33 34 34 34 35 35 36 36 36 37 37 37 38 38 39 39 39 40 40 40 41
33 33 33 33 33 33 33 34 34 34 34 34 34 34 34 34 34 34 34 34 34 34 34 34 34 34 33 33 33 33 33 33 33 33 33 33 33 33 33 33 33 33 33 33 33 33 33 33 33 33 33 33 34 34 34 34 34 34 34 34 34 34 34 34 34 35 35 35 36 36 37 37 38 38 38 39 39 40 40 41 41 41 42 42 43 43
33 33 33 33 33 33 33 33 34 34 34 34 34 35 35 35 35 34 34 34 34 34 34 34 34 34 34 34 33 33 33 33 34 34 34 34 34 34 34 34 34 34 34 34 34 34 34 34 34 35 35 35 35 35 35 35 35 35 35 35 35 35 35 36 36 36 36 37 37 38 38 39 39 40 40 41 41 42 42 43 43 44 44 45 45 45
32 32 32 33 33 33 33 33 34 34 34 34 34 35 35 35 35 35 35 35 35 34 35 35 35 34 34 34 34 34 34 34 34 34 34 34 35 35 35 35 35 35 35 35 35 35 35 35 36 36 36 36 37 37 37 37 37 37 37 37 37 37 37 37 38 38 38 39 39 39 40 40 41 41 42 42 43 44 44 45 45 46 46 47 47 48
32 32 32 33 33 33 33 33 34 34 34 35 35 35 35 35 35 35 35 35 35 35 35 35 35 35 34 34 34 34 34 34 34 34 35 35 35 35 35 36 36 36 36 36 36 36 36 36 37 37 37 38 38 38 38 38 39 39 39 39 39 39 40 40 40 40 40 41 41 41 42 42 43 43 44 44 45 46 46 47 47 48 49 49 50 50
32 32 33 33 33 33 33 34 34 34 35 35 35 35 35 35 35 35 35 35 35 35 35 35 35 35 35 35 34 34 34 34 35 35 35 35 36 36 36 36 37 37 37 37 37 37 37 37 38 38 38 39 39 39 40 40 40 40 41 41 41 41 42 42 42 42 43 43 43 44 44 44 45 45 46 46 47 48 48 49 50 50 51 51 52 52
33 33 33 33 34 34 34 34 35 35 35 35 35 35 35 35 35 35 35 35 35 35 35 35 35 35 35 35 35 34 34 34 35 35 36 36 36 37 37 37 37 37 38 38 38 38 38 38 39 39 39 40 40 41 41 41 41 42 42 42 43 43 44 44 44 45 45 45 46 46 46 47 47 48 48 49 49 50 50 51 52 52 53 53 54 54
33 33 34 34 34 34 35 35 35 36 36 36 36 36 36 36 35 35 35 35 35 35 35 35 35 35 35 35 35 35 35 35 35 36 36 37 37 37 37 38 38 38 38 39 39 39 39 39 40 40 41 41 41 42 42 42 43 43 43 44 44 45 45 46 46 47 47 48 48 48 49 49 50 50 50 51 51 52 53 53 54 54 55 55 55 56
34 34 34 35 35 35 36 36 36 36 37 37 37 36 36 36 36 36 36 36 36 36 36 36 36 36 35 35 35 35 35 35 35 36 37 37 38 38 38 38 39 39 39 39 39 40 40 40 41 41 42 42 43 43 43 43 44 44 45 45 46 46 47 47 48 48 49 49 50 50 51 51 52 52 53 53 54 54 55 55 56 56 56 56 57 57
34 34 35 35 36 36 36 37 37 37 37 37 37 37 37 37 37 37 36 36 36 36 36 36 36 36 36 36 36 36 36 36 36 37 37 38 38 39 39 39 39 40 40 40 40 41 41 41 42 42 43 43 44 44 44 45 45 46 46 47 47 48 48 49 49 50 50 51 51 52 53 53 54 54 55 56 56 57 57 57 58 58 58 58 58 57
34 35 35 36 36 37 37 37 38 38 38 38 38 38 38 38 38 37 37 37 37 37 37 37 37 37 37 37 37 37 37 37 37 38 38 39 39 40 40 40 40 41 41 41 42 42 42 43 43 43 44 44 45 45 46 46 47 47 47 48 48 49 49 50 51 51 52 52 53 53 54 55 55 56 56 57 58 58 59 59 59 59 59 59 58 58
35 35 36 36 37 37 37 38 38 38 38 38 39 39 39 38 38 38 38 38 38 38 38 37 38 38 38 38 38 38 38 38 39 39 40 40 41 41 41 41 41 42 42 43 43 43 43 44 44 45 45 46 46 47 47 47 48 48 49 49 50 50 51 51 52 52 53 53 54 54 55 56 56 57 57 58 59 59 59 59 59 59 59 59 59 58
36 36 36 37 37 38 38 38 38 39 39 39 39 39 39 39 39 39 39 38 38 38 38 38 38 38 39 39 39 39 39 40 40 40 41 41 42 42 42 42 43 43 43 44 44 44 44 45 45 46 46 47 47 48 48 49 49 49 50 50 51 51 51 52 52 53 53 54 54 55 56 56 57 58 58 59 59 59 59 59 59 59 59 58 58 58
36 37 37 37 38 38 38 39 39 39 39 39 39 39 39 39 39 39 39 39 39 39 39 39 39 39 39 40 40 40 40 41 41 42 42 42 43 43 43 43 44 44 44 45 45 46 46 46 46 47 47 48 48 49 49 49 50 50 50 51 51 52 52 52 53 53 54 55 55 56 56 57 58 58 58 59 59 59 59 58 58 58 58 58 58 58
37 37 38 38 38 39 39 39 39 40 40 40 40 39 39 39 39 39 40 40 39 40 40 40 40 40 40 41 41 41 41 41 42 42 43 43 44 44 44 44 44 45 45 46 46 47 47 47 47 48 48 48 49 49 49 50 50 50 51 51 52 52 52 53 53 54 55 55 56 56 57 57 58 58 58 58 58 58 58 57 57 57 57 57 57 57
38 38 38 39 39 39 40 40 40 40 40 40 40 40 40 40 40 40 40 40 40 40 40 41 41 41 41 41 41 42 42 42 43 43 43 44 44 44 44 45 45 46 46 46 47 47 48 48 49 49 49 49 49 49 49 50 50 50 51 51 52 52 53 53 54 55 55 56 56 57 57 57 57 57 57 57 57 57 57 57 57 56 57 57 57 57
38 38 39 39 39 40 40 40 40 41 41 41 41 41 41 40 40 40 41 41 41 41 41 41 41 42 42 42 42 42 43 43 43 44 44 44 45 45 45 46 46 47 47 47 47 48 49 49 49 50 49 49 49 49 49 50 50 50 51 51 52 52 53 54 54 55 56 56 57 57 57 57 57 56 56 56 56 56 56 56 56 56 56 56 56 56
39 39 39 40 40 40 40 41 41 41 41 41 41 41 41 41 41 41 41 41 41 42 42 42 42 42 43 43 43 43 43 44 44 44 45 45 46 46 46 47 47 47 48 48 48 49 49 49 50 50 50 50 50 49 49 49 49 50 50 51 52 53 53 54 55 55 56 56 56 56 56 56 56 55 55 55 55 55 56 56 56 56 56 56 55 55
40 40 40 41 41 41 41 41 41 41 41 42 42 42 41 41 41 41 41 42 42 42 42 42 43 43 43 43 44 44 44 44 45 45 46 46 46 47 47 48 48 48 48 49 49 49 49 49 50 50 50 50 50 50 49 49 50 50 50 51 52 53 54 54 55 55 56 56 56 56 55 55 55 55 55 55 55 55 55 55 55 55 55 54 54 53
41 41 41 41 42 42 41 41 41 42 42 42 42 42 42 42 42 42 42 42 42 42 43 43 43 43 44 44 44 45 45 45 46 46 46 47 47 48 48 48 49 49 49 49 49 49 49 49 49 49 50 50 50 50 50 50 50 50 51 51 52 53 54 55 55 55 55 55 55 55 54 54 54 55 55 55 55 55 54 54 54 54 53 53 52 51
41 42 42 42 42 42 42 42 42 42 42 42 42 42 42 42 42 42 42 43 43 43 43 43 44 44 44 45 45 45 46 46 46 47 47 48 48 49 49 49 49 50 49 50 49 49 49 49 50 50 50 50 50 51 51 51 51 51 52 52 53 53 54 54 54 54 54 54 54 54 54 54 54 54 54 54 54 53 53 53 52 52 51 51 50 49
42 42 42 42 42 42 42 42 42 42 42 42 42 43 43 43 43 43 43 43 43 44 44 44 44 45 45 45 46 46 47 47 47 48 48 49 49 49 50 50 50 50 50 50 50 50 50 50 50 50 50 50 50 51 52 52 53 53 53 53 53 53 53 53 53 53 53 53 53 54 53 53 53 53 53 52 52 52 52 51 51 50 49 49 48 47
42 42 42 42 42 42 42 42 42 42 42 42 43 43 43 43 43 43 43 43 44 44 44 45 45 45 46 46 46 47 47 48 48 49 49 49 50 50 50 51 51 51 51 51 51 50 50 50 50 50 50 51 51 52 53 53 54 54 54 54 53 53 52 52 52 52 52 53 53 53 53 52 52 51 51 51 50 50 50 50 49 48 48 47 47 46
41 41 42 42 42 42 42 42 42 42 42 42 43 43 43 43 43 43 44 44 44 45 45 45 46 46 46 47 47 48 48 48 49 49 50 50 51 51 51 52 52 52 52 51 51 51 51 50 50 50 51 51 52 53 54 54 54 54 54 54 53 52 51 51 51 51 52 52 52 52 51 51 50 50 49 49 49 49 48 48 47 47 46 46 45 45
41 41 41 41 41 41 42 42 42 42 42 42 43 43 43 43 43 44 44 44 45 45 46 46 46 47 47 47 48 48 49 49 50 50 51 52 52 53 53 53 53 53 53 52 52 51 51 51 51 51 51 52 53 54 54 54 54 54 54 53 53 52 51 51 51 51 51 51 51 50 49 49 48 48 48 47 47 47 47 46 46 46 45 45 44 44
41 41 41 41 41 41 41 41 42 42 42 42 42 43 43 43 44 44 44 45 45 46 46 47 47 48 48 48 49 49 50 50 51 52 53 53 54 55 55 54 54 53 53 52 52 51 51 51 51 51 52 52 53 54 54 54 54 53 53 52 52 52 51 51 51 51 51 51 50 49 48 47 47 46 46 46 46 46 45 45 45 44 44 44 43 43
40 41 41 41 41 41 41 41 41 42 42 42 42 43 43 43 44 44 45 46 46 47 47 48 48 49 49 49 50 50 51 52 52 54 54 55 56 56 56 55 54 54 53 52 52 51 51 51 51 52 52 53 53 54 54 54 53 52 52 51 51 52 52 52 52 52 51 50 49 48 47 46 46 45 45 44 44 44 44 44 43 43 43 43 43 43
40 40 40 40 41 41 41 41 41 42 42 42 43 43 43 44 44 45 46 46 47 48 48 49 49 49 50 50 51 52 52 53 54 55 56 57 57 57 56 55 54 53 52 52 52 51 51 51 52 52 53 53 53 53 53 52 52 51 51 51 51 52 52 52 52 52 51 50 49 48 47 46 45 44 43 43 43 42 42 42 42 42 42 42 42 42
40 40 40 40 40 41 41 41 42 42 42 43 43 43 44 44 45 45 46 47 48 48 49 50 50 51 51 52 52 53 54 55 56 57 57 58 57 57 56 55 54 53 52 52 52 52 52 52 52 52 53 53 52 52 52 51 51 51 51 51 51 52 52 52 52 51 51 50 49 48 47 46 44 43 42 42 41 41 41 40 41 41 41 41 41 41
39 39 39 40 40 40 41 41 42 42 42 43 43 44 44 45 45 46 47 48 48 49 50 50 51 52 53 53 54 55 56 57 58 58 58 58 57 56 55 54 53 53 52 52 52 52 52 52 52 53 52 52 51 51 50 50 50 50 50 51 51 51 51 51 51 51 50 50 49 48 47 45 44 42 41 40 40 39 39 39 39 40 40 40 40 40
39 39 39 40 40 41 41 42 42 43 43 43 44 44 45 46 46 47 48 48 49 50 51 51 52 53 54 55 55 56 57 58 59 59 58 58 57 55 55 54 53 53 53 52 52 52 52 52 52 52 51 51 50 49 49 49 49 50 50 51 51 51 51 51 50 50 50 50 49 48 47 45 43 42 40 39 38 38 38 38 38 39 39 39 39 39
39 39 39 40 40 41 41 42 42 43 44 44 45 45 46 47 47 48 49 49 50 51 52 52 53 54 55 56 57 57 58 59 59 58 58 57 56 55 54 54 53 53 53 52 52 52 52 52 52 51 50 49 49 48 48 48 49 50 50 50 50 50 50 50 50 50 49 49 48 47 46 44 42 41 39 38 38 37 37 38 38 38 38 39 39 39
39 40 40 40 41 41 42 43 43 44 44 45 46 46 47 48 48 49 50 50 51 52 53 53 54 55 56 57 57 58 58 59 58 57 57 56 55 54 54 53 53 53 52 52 52 52 51 51 50 49 48 48 48 48 48 48 49 50 50 50 50 49 49 49 49 49 49 48 47 46 45 43 41 40 39 38 37 37 37 37 38 38 39 39 39 40
41 41 41 41 42 42 43 43 44 45 46 46 47 48 48 49 49 50 51 51 52 52 53 54 55 56 57 57 58 58 58 58 57 57 56 55 55 54 54 53 53 52 52 51 51 51 50 49 49 48 47 47 47 48 48 48 49 50 50 50 49 49 48 48 48 49 48 47 46 45 44 42 41 39 38 37 36 36 37 37 38 39 39 39 39 39
42 42 43 43 43 43 44 44 45 46 47 47 48 49 49 50 50 51 51 52 52 53 54 55 56 57 57 58 58 58 58 57 57 56 56 55 55 54 54 53 52 52 51 51 50 49 48 47 47 46 46 46 47 47 48 49 49 49 49 49 48 48 48 48 48 48 47 46 45 44 42 41 40 39 38 37 36 36 37 37 38 38 38 38 38 37
44 44 44 44 44 45 45 46 46 47 48 48 49 50 50 50 51 51 51 52 53 53 54 55 56 57 57 58 58 57 57 57 56 56 56 55 55 54 53 53 52 51 50 49 49 47 46 45 45 45 45 45 46 47 48 49 49 49 48 48 47 47 47 47 47 47 46 45 44 42 41 40 39 38 38 37 36 36 36 36 36 36 36 36 35 34
Wind_Direction
303 303 303 303 303 302 302 301 301 301 301 302 302 302 302 303 303 303 304 304 305 306 307 308 309 311 313 315 317 319 321 322 323 324 324 325 325 325 325 326 325 325 325 325 325 326 327 327 325 320 312 303 294 285 276 268 262 259 260 262 264 265 266 266 265 264 262 261 260 259 260 259 259 258 257 256 255 254 253 252 251 250 250 250 250 251
303 303 303 303 302 302 301 301 301 301 301 301 301 302 302 302 302 303 303 303 304 305 306 307 309 311 313 315 316 318 319 321 322 323 323 324 324 324 325 325 325 324 323 322 322 321 322 322 323 321 317 310 302 293 285 277 270 266 265 268 271 273 274 273 270 267 264 261 259 258 257 257 257 257 256 256 255 254 253 252 251 250 249 249 249 249
304 304 303 303 302 301 301 300 300 300 300 300 300 300 301 301 301 302 302 303 303 304 306 307 309 310 312 314 315 316 317 318 318 319 320 321 321 322 322 323 323 323 322 321 319 318 317 318 318 318 316 313 309 303 296 289 282 278 276 277 278 279 278 276 274 270 267 263 260 257 255 254 254 254 254 254 254 253 252 251 250 249 249 248 248 248
304 303 303 302 301 300 300 299 299 299 299 299 299 299 300 300 300 301 301 302 303 304 305 306 308 309 311 312 313 314 314 315 315 315 316 316 317 318 318 319 320 320 320 320 318 317 315 314 313 312 310 308 306 303 298 293 288 283 280 277 276 275 274 273 271 269 266 263 259 257 255 253 252 252 252 252 252 251 251 250 250 249 248 248 248 248
304 303 302 302 301 300 299 299 298 298 298 298 298 298 299 299 300 300 301 302 303 304 305 306 307 308 310 311 311 312 312 312 312 312 313 313 313 314 314 315 316 316 317 317 317 316 314 312 309 306 303 300 297 293 289 285 281 276 273 270 268 267 267 267 266 265 264 262 260 258 256 255 254 253 253 252 251 251 250 250 249 249 248 248 248 248
303 302 302 301 300 299 298 298 297 297 297 297 297 298 298 299 299 300 301 302 303 304 305 306 307 308 308 309 309 310 310 310 310 310 310 311 311 311 312 312 312 313 314 314 314 314 313 311 308 305 302 299 295 291 286 281 277 274 271 269 268 267 267 267 267 267 266 264 263 262 261 260 259 258 256 255 253 252 251 251 250 250 250 250 250 251
303 302 301 300 299 299 298 298 297 297 297 297 298 298 299 299 300 301 302 302 303 304 305 305 306 307 307 307 308 308 307 308 308 308 309 309 309 310 310 310 310 310 311 311 311 311 311 310 308 305 303 300 297 294 290 287 283 280 278 276 275 274 274 274 273 272 271 270 269 268 267 266 265 264 262 261 259 257 255 254 253 253 253 253 253 254
302 301 300 299 299 298 298 297 297 297 297 298 298 299 300 300 301 302 302 303 303 304 304 305 305 305 306 306 306 306 306 306 306 307 307 308 308 308 308 309 309 309 309 309 309 309 309 308 307 305 303 300 298 295 293 291 289 287 286 284 283 282 281 280 279 278 277 276 275 274 272 271 270 269 267 266 264 262 261 259 258 257 257 257 257 258
301 300 299 298 298 297 297 297 297 297 298 298 299 300 300 301 301 302 302 303 303 303 303 303 303 303 304 304 304 304 304 304 304 305 305 306 306 307 307 307 308 308 308 307 307 307 306 306 305 304 303 302 300 297 295 293 291 290 289 288 288 287 286 285 284 283 282 280 279 277 276 274 273 272 270 269 268 266 265 264 263 262 261 261 261 261
300 299 298 298 298 297 297 297 298 298 298 299 299 300 300 301 301 301 301 302 302 302 302 301 302 302 302 302 302 302 302 302 302 302 303 304 304 305 306 306 307 307 307 307 306 306 305 304 304 303 303 302 301 300 298 296 294 292 290 289 289 288 287 287 286 285 284 283 281 280 278 277 275 274 272 271 270 269 268 267 266 265 264 264 264 264
299 298 298 298 297 297 297 297 298 298 298 299 299 300 300 300 300 300 300 300 300 300 300 300 300 300 300 300 300 300 300 300 300 301 301 302 303 303 304 305 306 306 306 306 306 306 305 304 303 302 301 301 300 300 299 298 296 294 292 291 289 288 287 287 286 285 285 284 283 281 280 278 277 276 274 273 272 271 270 269 268 268 267 267 266 266
298 298 297 297 297 297 297 298 298 298 299 299 299 299 299 299 299 299 299 299 298 298 298 298 298 298 298 298 298 298 299 299 299 300 300 301 301 302 303 304 305 305 306 306 306 305 304 303 302 301 300 300 299 298 298 297 296 295 293 292 290 289 288 286 285 285 284 283 282 282 281 280 278 277 276 275 274 273 272 272 271 270 270 269 269 268
298 298 297 297 297 297 298 298 298 298 299 299 299 299 299 299 298 298 298 298 297 297 297 297 297 297 297 297 298 298 298 298 298 299 299 300 301 301 302 303 304 304 304 305 305 304 304 303 302 301 300 299 299 298 297 296 295 294 293 292 291 290 289 287 286 285 284 283 282 281 281 280 279 278 278 277 276 276 275 274 273 273 272 272 271 270
298 297 297 297 297 298 298 298 299 299 299 299 299 299 299 298 298 298 298 297 297 297 297 296 296 297 297 297 297 297 297 297 297 298 298 299 299 300 301 302 303 303 303 304 304 303 303 302 302 301 301 300 299 298 297 296 295 294 293 292 292 291 290 289 288 287 286 285 284 283 282 281 280 279 279 278 278 277 276 276 275 274 274 273 273 272
297 298 298 298 298 299 299 299 299 299 299 299 299 299 299 298 298 298 298 297 297 297 296 296 296 296 296 296 296 296 297 296 297 297 297 298 298 299 300 301 302 302 302 303 303 303 302 302 301 301 300 300 299 298 297 296 295 294 294 293 292 292 291 290 289 288 287 286 285 284 284 283 282 281 280 280 279 279 278 277 276 276 275 275 274 273
298 298 298 299 299 299 300 300 300 300 300 300 299 299 299 299 298 298 298 297 297 297 296 296 296 296 296 296 296 296 296 296 296 296 296 297 297 298 298 299 300 300 301 301 302 302 301 301 300 300 300 299 298 298 297 296 296 295 294 294 293 292 292 291 290 289 288 287 287 286 285 284 284 283 282 281 281 280 279 279 278 277 277 276 275 275
298 299 299 300 300 300 300 300 300 300 300 300 300 299 299 299 299 298 298 298 297 297 297 296 296 296 296 296 295 295 296 296 296 296 296 296 296 296 297 298 298 299 299 300 300 300 300 300 299 299 299 298 297 297 296 296 295 295 295 294 293 293 292 291 290 290 289 288 287 287 286 285 285 284 283 283 282 281 280 280 279 278 278 277 277 276
299 299 300 300 300 301 301 301 301 300 300 300 300 299 299 299 299 299 298 298 298 297 297 296 296 296 296 296 296 295 295 295 295 295 295 295 295 295 295 296 297 297 298 298 298 299 299 298 298 298 297 297 296 296 295 295 295 295 294 294 293 293 292 291 290 290 289 288 288 287 286 286 285 285 284 283 283 282 281 281 280 280 279 278 278 277
299 299 300 300 301 301 301 301 300 300 300 300 300 299 299 299 299 299 299 298 298 298 297 297 297 296 296 296 296 295 295 295 295 295 295 295 294 294 295 295 295 296 296 297 297 297 297 297 297 296 296 296 295 295 295 294 294 294 294 293 293 292 292 291 290 290 289 288 288 287 287 286 286 285 285 284 284 283 283 282 281 281 280 280 279 279
299 299 300 300 300 300 301 300 300 300 300 300 300 300 299 299 299 299 299 299 298 298 297 297 297 297 296 296 296 295 295 295 295 295 295 295 294 294 294 294 295 295 295 295 295 295 296 296 295 295 295 294 294 294 293 293 293 293 293 292 292 292 291 291 290 290 289 289 288 287 287 286 286 286 285 285 284 284 284 283 283 282 282 281 281 280
299 299 300 300 300 300 301 300 300 300 300 300 300 300 300 300 300 299 299 299 298 298 298 297 297 297 297 296 296 296 296 296 296 296 295 295 295 294 294 294 295 295 294 294 294 294 294 294 294 294 293 293 293 292 292 292 292 292 292 292 291 291 291 291 290 290 289 289 289 288 288 287 287 286 286 285 285 285 284 284 284 283 283 282 282 282
299 300 300 300 300 301 301 301 301 301 301 300 300 300 300 300 300 299 299 299 298 298 298 297 297 297 296 296 296 296 296 296 296 296 296 296 295 295 295 295 294 294 294 294 294 294 293 293 293 293 292 292 292 291 291 291 291 291 291 291 290 290 290 290 290 290 289 289 289 288 288 288 287 287 287 286 286 285 285 285 284 284 283 283 283 282
299 300 300 301 301 301 301 301 301 301 301 301 300 300 300 300 300 299 299 299 298 298 297 297 296 296 296 296 295 295 296 296 296 296 296 296 296 295 295 295 294 294 294 294 293 293 293 293 292 292 292 291 291 291 291 291 291 290 290 290 290 290 290 289 289 289 289 289 288 288 288 288 287 287 287 287 286 286 286 285 285 285 284 284 283 283
300 300 301 301 302 302 302 302 302 302 301 301 301 300 300 300 300 299 299 299 298 298 297 297 296 296 295 295 295 295 295 295 296 296 296 295 295 295 295 295 294 294 293 293 293 293 292 292 292 292 291 291 291 291 291 291 291 290 290 290 290 289 289 289 289 288 288 288 287 287 287 287 287 287 286 286 286 286 286 286 285 285 285 284 283 283
300 301 301 302 302 303 303 303 303 302 302 301 301 300 300 300 299 299 299 298 298 297 297 296 296 295 295 295 295 295 295 295 295 295 295 295 295 295 294 294 294 294 293 293 293 292 292 292 292 292 292 291 291 291 291 291 291 290 290 290 289 289 289 288 288 288 287 287 287 286 286 286 286 286 286 286 286 286 286 286 285 285 285 284 284 283
300 301 301 302 303 303 303 303 303 303 302 301 301 300 300 300 299 299 298 298 298 297 297 296 296 295 295 295 295 295 295 295 295 295 295 295 295 294 294 294 294 294 293 293 293 293 292 292 292 292 292 292 292 291 291 291 291 290 290 290 289 289 288 288 288 287 287 286 286 286 285 285 285 285 285 285 285 285 285 285 285 285 284 284 283 283
299 300 301 302 302 303 303 303 303 303 302 302 301 301 300 300 299 299 298 298 298 297 296 296 295 295 295 295 295 295 295 295 295 295 294 294 294 294 294 294 294 294 294 293 293 293 293 293 293 293 293 292 292 292 291 291 291 290 290 289 289 289 288 288 287 287 287 286 286 286 285 285 285 285 285 285 285 285 285 285 284 284 283 283 282 282
299 300 300 301 302 302 303 303 303 303 302 302 301 301 300 300 299 299 298 298 297 297 296 296 295 295 295 295 295 295 295 295 295 295 295 295 295 295 295 294 294 294 294 294 294 294 293 293 293 293 293 293 292 292 292 291 291 291 290 290 289 289 288 288 287 287 287 286 286 286 286 286 286 286 286 285 285 285 285 284 284 283 282 282 281 280
298 299 300 301 301 302 302 303 303 303 302 302 301 300 300 299 299 298 298 297 297 296 296 295 295 295 295 295 295 295 295 295 295 295 295 295 295 295 295 295 295 295 295 295 295 294 294 294 294 294 293 293 293 292 292 292 291 291 291 290 290 289 289 288 288 288 287 287 287 287 287 287 287 286 286 286 285 285 284 283 283 282 281 280 280 279
297 298 299 300 301 301 302 302 302 302 302 301 301 300 299 299 298 298 297 297 296 296 295 295 295 294 294 295 295 295 295 295 295 295 295 295 296 296 296 295 295 295 296 296 296 295 295 294 294 294 293 293 293 293 292 292 292 292 291 291 290 290 290 289 289 289 288 288 288 288 288 288 287 287 287 286 285 284 284 283 282 281 280 280 279 278
297 297 298 299 300 301 301 302 302 302 302 301 301 300 300 299 298 298 297 297 296 296 295 295 295 295 295 295 295 295 296 296 296 296 296 296 296 296 296 296 296 296 296 296 296 296 296 295 295 294 293 293 293 293 293 293 293 292 292 292 291 291 291 290 290 290 290 290 289 289 289 288 288 287 286 286 285 284 283 282 281 280 280 279 278 277
296 296 297 298 299 300 301 301 302 302 302 301 301 300 300 299 299 298 297 297 296 296 296 295 295 295 295 295 295 296 296 297 297 297 297 297 297 297 297 297 297 297 297 297 297 297 297 296 296 295 294 294 293 293 293 293 293 293 293 293 292 292 292 292 291 291 291 291 290 290 289 289 288 287 286 285 284 283 282 281 281 280 279 278 277 276
295 296 296 297 298 299 300 301 301 301 301 301 301 300 299 299 298 298 298 297 297 296 296 296 295 295 296 296 296 296 297 297 297 297 297 298 298 298 298 298 298 298 298 297 297 297 297 297 297 296 296 295 294 294 294 294 293 294 294 294 294 293 293 293 293 292 292 291 291 290 290 289 288 287 286 285 284 283 282 281 280 279 278 277 276 275
295 295 296 297 298 298 299 300 300 301 301 300 300 300 299 299 298 298 297 297 297 296 296 296 296 296 296 296 297 297 297 297 297 298 298 298 298 298 298 298 298 298 298 298 298 297 297 297 297 297 297 296 295 295 295 294 294 294 294 294 295 294 294 294 293 293 292 292 291 291 290 289 288 287 286 285 285 284 283 281 280 279 278 277 275 273
295 295 296 297 298 298 299 300 300 300 300 300 300 299 299 298 298 297 297 297 297 296 296 296 296 296 297 297 297 298 298 298 298 298 298 299 299 299 299 299 299 299 299 298 298 298 298 298 297 297 297 297 297 296 296 296 296 296 295 295 295 295 295 294 294 293 293 292 291 291 290 289 289 288 287 286 285 284 283 282 280 279 277 276 274 272
295 296 296 297 298 299 299 300 300 300 300 300 299 299 298 298 298 297 297 297 297 297 296 296 296 297 297 297 298 298 298 299 299 299 299 299 300 300 300 300 299 299 299 299 299 298 298 298 298 298 298 298 298 298 298 297 297 297 296 296 296 295 295 294 294 293 293 292 292 291 290 290 289 289 288 287 286 285 283 282 280 279 277 275 273 271
295 296 297 297 298 299 299 300 300 300 300 299 299 299 298 298 297 297 297 297 297 297 297 297 297 297 297 297 298 298 299 299 299 300 300 300 300 300 300 300 300 300 300 299 299 299 299 298 298 298 298 299 299 299 299 299 298 298 297 297 296 295 295 294 294 293 293 292 292 292 291 291 290 289 288 287 286 285 283 282 280 278 276 274 272 270
296 296 297 298 298 299 299 299 300 300 299 299 299 298 298 298 298 297 297 297 297 297 297 297 297 297 297 298 298 299 299 300 300 301 301 301 301 301 301 301 301 300 300 299 299 299 299 299 299 299 299 299 299 299 299 299 299 299 298 297 296 296 295 294 293 293 293 293 292 292 292 291 290 290 288 287 286 285 283 282 280 278 276 273 271 270
296 296 297 298 298 299 299 299 299 299 299 299 299 298 298 298 298 297 297 297 297 297 297 297 297 297 298 298 299 299 300 300 301 301 302 302 302 302 302 302 301 301 300 300 299 299 299 299 299 299 300 300 300 299 299 299 299 299 298 298 297 296 295 294 294 293 293 293 293 293 292 292 291 290 288 287 286 284 283 281 279 277 275 272 271 269
296 297 297 298 298 299 299 299 299 299 299 299 299 298 298 298 298 298 298 297 297 297 297 297 297 297 298 298 299 300 301 301 302 302 303 303 303 303 303 303 302 301 301 300 299 299 299 299 299 299 299 300 300 300 300 299 299 299 298 298 297 296 296 295 295 294 294 294 294 293 292 292 291 289 288 287 285 284 282 280 278 276 273 271 270 269
296 297 297 298 298 299 299 299 299 299 299 299 299 299 298 298 298 298 298 298 297 297 297 297 297 298 298 299 299 300 301 302 303 303 304 304 304 304 304 303 302 302 301 300 300 299 299 299 299 299 299 300 300 299 299 299 299 299 298 298 298 297 297 296 296 296 295 295 294 294 293 292 290 289 288 286 284 283 281 279 276 274 273 271 270 269
296 297 298 298 298 298 299 299 299 299 299 299 299 299 299 299 298 298 298 298 297 297 297 297 297 298 298 299 300 301 301 302 303 304 304 305 305 304 304 303 302 302 301 300 300 299 299 299 299 299 300 300 300 299 299 299 299 299 298 298 298 298 298 297 297 297 297 296 295 294 293 292 291 289 287 285 283 281 279 277 275 273 272 270 270 269
297 297 298 298 298 299 299 299 299 299 299 299 299 299 299 299 298 298 298 297 297 297 297 297 298 298 299 299 300 301 302 303 303 304 304 304 304 304 304 303 302 301 301 300 300 300 300 299 299 300 300 300 300 299 299 299 299 299 298 298 298 299 299 298 298 298 297 297 296 296 295 293 292 290 287 285 283 280 278 276 274 273 271 270 270 269
297 298 298 298 299 299 299 299 299 300 300 300 299 299 299 299 298 298 298 298 297 297 297 297 298 298 299 299 300 301 302 303 303 304 304 304 304 303 303 302 302 301 301 300 300 300 300 300 300 300 300 300 299 299 299 299 299 299 299 299 299 299 299 299 299 298 298 298 297 297 296 294 293 290 287 285 282 280 278 275 274 272 271 270 270 269
298 298 299 299 299 299 300 300 300 300 300 300 300 299 299 299 299 298 298 298 298 297 297 298 298 298 299 300 300 301 302 303 303 303 303 303 303 303 303 302 302 301 301 300 300 300 300 300 300 300 300 300 299 299 299 299 299 299 299 299 300 300 299 299 299 299 298 298 298 298 297 295 293 290 288 285 282 280 277 275 273 272 271 270 270 269
299 299 299 300 300 300 300 300 300 300 300 300 300 299 299 299 299 299 298 298 298 298 298 298 298 299 299 300 301 301 302 303 303 303 303 303 303 303 302 302 302 302 301 301 300 300 300 300 300 300 300 300 299 299 299 299 299 299 300 300 300 300 300 299 299 299 299 299 299 298 297 296 293 291 288 285 282 280 278 276 274 273 272 271 271 270
299 300 300 300 300 300 300 300 300 300 300 300 300 300 300 300 299 299 299 299 299 299 299 299 299 299 299 300 301 302 302 302 302 302 302 302 302 302 303 302 302 302 302 301 301 301 300 300 300 300 300 299 299 299 299 299 300 300 300 300 300 300 300 299 299 299 299 299 299 298 297 296 293 291 288 286 283 281 279 277 275 274 273 273 273 272
300 300 300 300 300 300 300 300 300 300 300 300 300 300 300 300 300 300 300 300 300 300 300 300 300 300 300 301 301 301 302 302 302 302 302 302 303 303 303 303 303 302 302 301 301 301 300 300 300 300 300 299 299 299 300 300 300 301 301 300 300 300 300 300 300 300 300 299 299 298 297 295 293 291 289 286 284 282 280 279 277 276 276 275 275 275
300 300 301 301 301 301 301 301 300 300 300 301 300 300 300 301 301 301 300 301 301 301 300 300 300 300 300 301 301 301 301 301 302 302 302 303 303 303 303 303 303 303 302 301 301 301 300 300 300 300 299 299 300 300 300 301 301 301 301 301 300 300 300 300 300 300 300 300 299 298 297 295 293 291 289 287 285 283 282 281 280 279 279 278 277 276
300 300 301 301 301 301 301 301 301 301 301 301 301 301 301 301 301 301 301 301 301 301 301 300 301 301 301 301 301 301 301 301 302 302 303 303 303 304 304 303 303 303 302 301 301 301 300 300 300 299 299 300 300 301 301 301 301 301 301 301 300 300 300 300 301 301 300 300 299 298 297 295 294 292 290 288 287 285 284 283 282 282 281 280 279 277
300 300 300 300 300 301 301 301 301 301 301 301 301 301 301 301 301 302 302 301 301 301 301 301 301 301 301 301 301 301 301 302 302 303 303 303 304 304 304 303 303 303 302 301 301 300 300 300 300 300 300 300 301 302 302 302 302 301 301 300 300 300 300 300 301 301 301 300 299 298 297 296 294 293 292 290 289 287 286 285 284 283 281 280 279 277
Height
5696 5694 5693 5691 5690 5688 5687 5686 5685 5683 5682 5681 5680 5679 5678 5677 5676 5675 5674 5673 5672 5671 5670 5668 5667 5666 5665 5663 5662 5661 5659 5658 5657 5655 5654 5653 5652 5650 5649 5647 5646 5644 5643 5642 5640 5639 5638 5637 5635 5635 5634 5633 5633 5633 5632 5632 5632 5632 5632 5632 5632 5632 5632 5632 5633 5633 5633 5634 5635 5636 5636 5637 5637 5638 5638 5639 5640 5640 5641 5642 5643 5644 5645 5647 5648 5649
5693 5692 5690 5689 5688 5686 5685 5684 5683 5682 5681 5679 5678 5678 5677 5675 5674 5673 5673 5671 5670 5669 5668 5667 5665 5664 5663 5661 5660 5659 5658 5657 5655 5654 5653 5652 5650 5649 5648 5647 5645 5644 5643 5642 5640 5639 5638 5637 5636 5635 5634 5633 5633 5632 5632 5632 5632 5632 5632 5632 5632 5632 5632 5632 5632 5633 5633 5633 5634 5635 5635 5636 5636 5637 5638 5638 5638 5639 5640 5641 5642 5643 5643 5644 5645 5646
5691 5689 5688 5687 5686 5685 5683 5682 5681 5680 5679 5678 5677 5676 5675 5674 5673 5672 5671 5669 5668 5667 5666 5665 5663 5662 5661 5660 5659 5658 5656 5655 5654 5653 5652 5651 5650 5648 5647 5646 5645 5644 5643 5642 5640 5639 5638 5637 5635 5634 5633 5633 5632 5632 5632 5631 5631 5631 5631 5631 5631 5631 5631 5631 5632 5632 5632 5633 5633 5634 5634 5635 5635 5636 5636 5637 5638 5638 5639 5639 5640 5641 5641 5642 5642 5643
5688 5687 5686 5685 5684 5683 5682 5680 5679 5678 5677 5676 5675 5674 5673 5672 5671 5670 5669 5668 5667 5666 5664 5663 5662 5661 5660 5658 5658 5656 5655 5654 5653 5652 5651 5650 5649 5648 5647 5646 5644 5643 5642 5641 5640 5639 5638 5637 5635 5634 5633 5633 5632 5631 5631 5631 5630 5630 5630 5630 5630 5631 5631 5631 5631 5632 5632 5632 5633 5633 5633 5633 5634 5634 5635 5636 5636 5637 5637 5638 5638 5638 5639 5639 5640 5640
5686 5685 5684 5683 5682 5681 5680 5679 5678 5677 5675 5674 5673 5673 5671 5670 5669 5668 5667 5666 5665 5664 5663 5662 5660 5659 5658 5657 5656 5655 5654 5653 5652 5651 5650 5649 5648 5647 5646 5645 5644 5643 5642 5640 5639 5638 5638 5636 5635 5634 5633 5633 5632 5631 5631 5630 5630 5630 5630 5630 5630 5630 5630 5630 5631 5631 5631 5631 5631 5632 5632 5632 5632 5633 5633 5633 5634 5635 5635 5635 5636 5636 5636 5637 5637 5638
5684 5683 5682 5681 5680 5679 5678 5677 5676 5675 5673 5673 5672 5671 5669 5668 5668 5666 5665 5664 5663 5662 5661 5660 5658 5658 5657 5656 5654 5653 5653 5652 5651 5650 5649 5648 5647 5646 5645 5644 5643 5642 5641 5639 5638 5638 5637 5636 5635 5634 5633 5633 5632 5631 5631 5631 5630 5630 5630 5630 5630 5629 5629 5629 5630 5630 5630 5630 5630 5630 5630 5630 5630 5631 5631 5631 5632 5632 5633 5633 5633 5633 5634 5634 5635 5635
5682 5681 5679 5678 5678 5677 5676 5675 5674 5673 5672 5671 5670 5668 5668 5667 5665 5664 5663 5662 5661 5660 5659 5658 5657 5656 5655 5654 5653 5652 5651 5650 5649 5648 5647 5646 5645 5644 5643 5643 5641 5640 5639 5638 5637 5636 5635 5635 5634 5633 5633 5632 5631 5631 5630 5630 5630 5629 5629 5629 5628 5628 5628 5628 5628 5628 5628 5628 5628 5628 5628 5628 5628 5628 5629 5629 5629 5630 5630 5630 5631 5631 5631 5632 5632 5632
5679 5678 5678 5677 5676 5675 5674 5673 5672 5671 5670 5668 5668 5667 5665 5664 5663 5662 5661 5660 5659 5658 5657 5656 5655 5654 5653 5652 5651 5650 5649 5648 5648 5647 5646 5645 5644 5643 5642 5641 5640 5639 5638 5637 5636 5635 5634 5633 5633 5632 5631 5631 5630 5630 5629 5629 5628 5628 5628 5627 5627 5627 5626 5626 5626 5626 5626 5626 5626 5626 5626 5626 5626 5626 5626 5627 5627 5627 5628 5628 5628 5628 5628 5629 5629 5629
5677 5676 5675 5675 5674 5673 5672 5671 5670 5668 5667 5666 5665 5664 5663 5662 5661 5660 5659 5658 5657 5656 5655 5654 5653 5652 5651 5650 5649 5648 5647 5647 5646 5645 5644 5643 5642 5641 5640 5639 5638 5638 5637 5636 5635 5634 5633 5632 5631 5630 5629 5629 5628 5628 5628 5628 5627 5627 5626 5626 5625 5625 5624 5624 5624 5624 5624 5623 5623 5623 5623 5624 5624 5624 5624 5624 5624 5624 5625 5625 5625 5625 5626 5626 5626 5626
5675 5674 5673 5672 5671 5670 5669 5668 5667 5666 5665 5664 5663 5662 5661 5660 5659 5658 5657 5656 5655 5654 5653 5652 5651 5650 5649 5648 5647 5646 5645 5644 5643 5643 5642 5641 5640 5639 5638 5638 5637 5636 5635 5634 5633 5632 5631 5630 5629 5628 5628 5627 5626 5626 5626 5625 5625 5625 5624 5624 5623 5623 5623 5622 5622 5622 5621 5621 5621 5621 5621 5621 5621 5622 5622 5622 5622 5622 5622 5622 5622 5623 5623 5623 5623 5623
5673 5672 5671 5670 5669 5668 5667 5666 5665 5664 5663 5662 5660 5659 5658 5658 5657 5656 5655 5654 5653 5652 5651 5650 5649 5648 5647 5646 5645 5644 5643 5642 5642 5641 5640 5639 5638 5637 5636 5635 5634 5633 5633 5632 5631 5630 5629 5628 5628 5627 5626 5625 5624 5624 5623 5623 5623 5622 5622 5622 5621 5621 5621 5620 5620 5619 5619 5619 5619 5619 5619 5619 5619 5619 5619 5619 5619 5619 5619 5619 5619 5619 5619 5619 5620 5620
5671 5670 5669 5668 5667 5666 5665 5664 5663 5661 5660 5659 5658 5657 5657 5655 5654 5653 5653 5652 5651 5650 5649 5648 5647 5646 5645 5644 5643 5642 5641 5640 5639 5638 5638 5637 5636 5635 5634 5633 5633 5632 5631 5630 5629 5628 5627 5626 5625 5625 5624 5623 5623 5622 5621 5621 5620 5620 5620 5619 5619 5619 5618 5618 5618 5618 5617 5617 5617 5617 5616 5616 5616 5616 5616 5616 5616 5616 5616 5616 5616 5616 5616 5616 5616 5616
5669 5668 5667 5666 5665 5663 5663 5661 5660 5659 5658 5657 5656 5655 5654 5653 5652 5651 5650 5649 5649 5648 5647 5646 5645 5643 5643 5642 5641 5640 5639 5638 5637 5636 5635 5634 5633 5633 5632 5631 5630 5629 5628 5628 5627 5626 5625 5624 5623 5623 5622 5621 5621 5620 5619 5619 5618 5618 5617 5617 5617 5616 5616 5616 5616 5615 5615 5615 5614 5614 5614 5613 5613 5613 5613 5613 5613 5613 5613 5613 5613 5612 5612 5612 5613 5613
5666 5665 5664 5663 5662 5661 5660 5659 5658 5657 5656 5655 5654 5653 5652 5651 5650 5649 5648 5647 5646 5645 5644 5643 5643 5642 5640 5639 5638 5637 5636 5635 5635 5634 5633 5632 5631 5630 5630 5629 5628 5627 5626 5626 5625 5624 5623 5622 5621 5620 5620 5619 5618 5618 5617 5617 5616 5615 5615 5614 5614 5614 5613 5613 5613 5613 5612 5612 5611 5611 5611 5610 5610 5610 5610 5609 5609 5609 5609 5609 5609 5608 5608 5608 5608 5609
5664 5663 5662 5661 5660 5659 5658 5657 5655 5654 5653 5653 5651 5650 5649 5648 5647 5646 5646 5644 5643 5643 5642 5641 5640 5639 5638 5637 5636 5635 5634 5633 5632 5632 5631 5630 5629 5628 5627 5626 5626 5625 5624 5623 5623 5622 5621 5620 5619 5618 5617 5617 5616 5615 5614 5614 5613 5613 5612 5612 5612 5611 5611 5610 5610 5609 5609 5608 5608 5608 5607 5607 5607 5606 5606 5606 5606 5605 5605 5605 5605 5605 5605 5605 5605 5605
5662 5660 5659 5658 5657 5656 5655 5654 5653 5652 5651 5650 5649 5648 5647 5646 5645 5644 5643 5642 5641 5640 5639 5638 5637 5637 5636 5635 5634 5633 5632 5631 5630 5629 5628 5627 5626 5626 5625 5624 5623 5622 5622 5621 5620 5619 5618 5618 5617 5616 5615 5614 5613 5612 5612 5611 5610 5610 5609 5609 5608 5608 5608 5607 5607 5606 5606 5605 5605 5604 5604 5603 5603 5603 5602 5602 5602 5602 5601 5601 5601 5601 5601 5601 5601 5601
5659 5658 5657 5656 5655 5654 5653 5652 5651 5650 5648 5647 5646 5645 5644 5643 5642 5641 5640 5639 5638 5637 5636 5635 5634 5633 5633 5632 5631 5630 5629 5628 5627 5626 5626 5625 5624 5623 5622 5621 5620 5619 5619 5618 5617 5617 5616 5615 5614 5613 5612 5611 5610 5609 5609 5608 5608 5607 5606 5606 5605 5605 5604 5604 5603 5603 5602 5602 5601 5601 5600 5600 5599 5599 5599 5598 5598 5598 5598 5597 5597 5597 5597 5597 5596 5596
5657 5655 5654 5653 5652 5651 5650 5649 5648 5647 5646 5645 5643 5643 5641 5640 5639 5638 5638 5637 5636 5634 5633 5632 5631 5631 5630 5629 5628 5628 5627 5625 5624 5623 5623 5622 5621 5620 5619 5618 5618 5617 5616 5615 5614 5614 5613 5612 5611 5610 5609 5608 5607 5607 5606 5605 5604 5604 5603 5603 5602 5601 5601 5600 5600 5599 5598 5598 5598 5597 5597 5596 5596 5595 5595 5594 5594 5594 5593 5593 5593 5593 5592 5592 5592 5592
5654 5653 5652 5651 5650 5649 5648 5647 5646 5644 5643 5642 5641 5640 5639 5638 5637 5636 5635 5634 5633 5632 5630 5629 5628 5628 5627 5626 5625 5624 5623 5622 5621 5621 5620 5619 5618 5617 5617 5616 5615 5614 5613 5613 5612 5611 5610 5609 5608 5607 5606 5605 5604 5603 5603 5602 5601 5601 5600 5599 5598 5598 5597 5597 5596 5595 5595 5594 5593 5593 5593 5592 5592 5591 5591 5590 5590 5589 5589 5588 5588 5588 5588 5587 5587 5587
5651 5651 5649 5648 5647 5646 5645 5644 5643 5642 5641 5639 5638 5637 5636 5635 5634 5633 5632 5631 5630 5629 5628 5627 5625 5625 5624 5623 5622 5621 5620 5619 5618 5618 5617 5616 5615 5614 5613 5613 5612 5611 5610 5609 5609 5608 5607 5606 5605 5604 5603 5602 5601 5600 5599 5599 5598 5597 5597 5596 5595 5594 5593 5593 5592 5591 5591 5590 5589 5589 5588 5588 5587 5587 5586 5586 5585 5585 5584 5584 5583 5583 5583 5582 5582 5582
5649 5648 5647 5646 5645 5644 5643 5642 5641 5639 5638 5637 5636 5635 5634 5633 5631 5630 5629 5628 5627 5626 5625 5624 5623 5622 5621 5620 5619 5618 5618 5617 5616 5615 5614 5613 5612 5611 5610 5609 5608 5608 5607 5606 5605 5605 5604 5603 5602 5601 5599 5598 5598 5597 5596 5595 5595 5594 5593 5592 5591 5590 5589 5589 5588 5587 5586 5586 5585 5584 5583 5583 5583 5582 5581 5581 5580 5580 5579 5579 5578 5578 5577 5577 5576 5576
5646 5645 5644 5643 5642 5641 5640 5639 5638 5636 5635 5634 5633 5632 5631 5630 5628 5628 5627 5625 5624 5623 5622 5621 5620 5619 5618 5617 5616 5615 5614 5613 5613 5612 5611 5609 5608 5608 5607 5606 5605 5604 5604 5603 5602 5601 5600 5599 5598 5597 5596 5595 5594 5593 5593 5592 5591 5590 5589 5588 5588 5587 5586 5585 5584 5583 5582 5581 5580 5580 5579 5578 5578 5577 5576 5576 5575 5575 5574 5573 5573 5572 5572 5571 5571 5570
5643 5642 5641 5640 5639 5638 5637 5636 5635 5633 5632 5631 5630 5629 5628 5627 5626 5624 5623 5623 5621 5620 5619 5618 5617 5616 5615 5614 5613 5612 5612 5611 5609 5608 5607 5606 5605 5604 5604 5603 5602 5601 5600 5599 5598 5598 5597 5596 5595 5593 5593 5591 5590 5590 5589 5588 5587 5586 5586 5585 5584 5583 5582 5581 5580 5579 5578 5577 5576 5575 5574 5573 5573 5572 5571 5571 5570 5569 5569 5568 5568 5567 5566 5566 5565 5565
5640 5639 5638 5637 5636 5635 5634 5633 5632 5630 5629 5628 5627 5626 5624 5623 5622 5621 5620 5619 5618 5617 5616 5615 5614 5613 5612 5611 5610 5609 5608 5608 5607 5605 5604 5603 5602 5601 5600 5599 5598 5598 5597 5596 5595 5594 5593 5592 5591 5590 5589 5588 5587 5586 5585 5584 5583 5583 5582 5581 5579 5579 5578 5577 5576 5575 5574 5573 5572 5571 5570 5569 5568 5567 5566 5565 5565 5564 5563 5563 5562 5561 5561 5560 5559 5559
5638 5637 5635 5634 5633 5632 5631 5630 5629 5628 5626 5625 5624 5623 5621 5620 5619 5618 5617 5616 5615 5614 5613 5612 5611 5610 5609 5608 5607 5606 5605 5605 5603 5602 5601 5600 5598 5598 5597 5596 5595 5594 5593 5592 5591 5591 5589 5588 5587 5586 5585 5584 5583 5582 5581 5580 5579 5578 5577 5576 5575 5574 5573 5572 5571 5570 5569 5568 5567 5566 5565 5564 5563 5562 5561 5560 5559 5558 5558 5557 5556 5555 5554 5554 5553 5553
5635 5634 5633 5632 5630 5629 5628 5627 5626 5624 5623 5622 5621 5619 5618 5617 5616 5615 5614 5613 5612 5611 5610 5608 5607 5606 5606 5605 5604 5603 5602 5601 5600 5599 5598 5596 5595 5594 5593 5593 5592 5590 5589 5588 5588 5587 5586 5584 5583 5582 5581 5580 5579 5578 5577 5576 5575 5574 5573 5572 5571 5570 5569 5568 5567 5566 5564 5563 5562 5561 5560 5559 5558 5557 5556 5555 5554 5553 5552 5551 5550 5549 5549 5548 5547 5547
5632 5631 5630 5628 5628 5626 5625 5624 5623 5622 5620 5619 5618 5616 5615 5614 5613 5612 5611 5610 5609 5608 5606 5605 5604 5603 5602 5601 5600 5599 5598 5597 5596 5595 5594 5593 5592 5590 5590 5589 5588 5587 5585 5584 5583 5583 5582 5580 5579 5578 5577 5576 5575 5573 5573 5571 5570 5569 5568 5567 5566 5565 5564 5563 5562 5561 5559 5558 5557 5556 5555 5554 5553 5552 5551 5550 5549 5548 5547 5546 5545 5544 5543 5542 5541 5541
5629 5628 5627 5626 5624 5623 5622 5621 5620 5619 5618 5616 5615 5613 5612 5611 5610 5608 5608 5607 5606 5604 5603 5602 5601 5599 5598 5598 5597 5596 5595 5594 5593 5591 5590 5589 5588 5587 5586 5585 5584 5583 5582 5580 5579 5578 5578 5576 5575 5574 5573 5571 5570 5569 5568 5567 5566 5564 5563 5562 5561 5560 5559 5558 5557 5556 5554 5553 5552 5551 5550 5549 5548 5547 5546 5544 5543 5542 5541 5540 5539 5538 5537 5537 5536 5535
5626 5625 5624 5623 5622 5620 5619 5618 5617 5616 5614 5613 5612 5611 5609 5608 5607 5606 5604 5603 5602 5601 5600 5599 5598 5596 5595 5594 5593 5593 5592 5591 5589 5588 5586 5585 5584 5583 5583 5581 5580 5579 5578 5576 5574 5573 5573 5572 5571 5570 5568 5567 5566 5564 5563 5562 5561 5560 5558 5557 5556 5555 5554 5553 5551 5550 5549 5548 5547 5546 5544 5543 5542 5541 5540 5539 5538 5536 5535 5534 5533 5532 5531 5531 5530 5529
5623 5622 5621 5619 5618 5617 5616 5615 5614 5613 5611 5610 5609 5608 5606 5605 5604 5603 5601 5600 5599 5598 5596 5595 5594 5593 5592 5591 5590 5589 5588 5587 5586 5584 5583 5581 5580 5579 5578 5577 5576 5575 5574 5572 5570 5568 5568 5568 5567 5566 5564 5563 5561 5560 5559 5558 5556 5555 5553 5552 5551 5550 5548 5547 5546 5545 5543 5543 5541 5540 5539 5538 5537 5535 5534 5533 5532 5530 5529 5528 5527 5527 5526 5525 5524 5523
5620 5619 5618 5616 5615 5614 5613 5612 5610 5609 5608 5607 5605 5604 5603 5602 5601 5599 5598 5597 5596 5595 5593 5592 5591 5590 5588 5587 5586 5585 5584 5583 5582 5580 5579 5578 5576 5575 5575 5573 5571 5570 5569 5568 5566 5563 5562 5562 5562 5561 5560 5558 5557 5556 5554 5553 5552 5550 5548 5547 5546 5544 5543 5542 5540 5539 5538 5537 5536 5534 5533 5532 5531 5529 5528 5527 5526 5524 5523 5522 5521 5521 5520 5519 5518 5517
5617 5616 5615 5613 5612 5611 5610 5608 5607 5606 5604 5603 5602 5601 5600 5598 5597 5596 5595 5593 5592 5591 5590 5589 5588 5586 5585 5584 5583 5582 5580 5579 5578 5577 5575 5574 5573 5571 5571 5569 5568 5566 5565 5564 5562 5560 5558 5556 5555 5555 5555 5553 5552 5551 5550 5548 5547 5545 5544 5542 5540 5539 5538 5537 5535 5533 5532 5531 5530 5528 5527 5526 5525 5523 5522 5521 5520 5518 5518 5516 5515 5515 5514 5513 5512 5511
5614 5613 5612 5611 5609 5608 5607 5605 5604 5603 5601 5600 5599 5598 5596 5595 5594 5593 5591 5590 5589 5588 5586 5585 5584 5583 5582 5581 5579 5578 5577 5576 5574 5573 5571 5570 5568 5567 5566 5565 5563 5562 5560 5559 5558 5556 5554 5552 5551 5550 5549 5548 5547 5546 5545 5544 5543 5541 5539 5537 5535 5534 5532 5531 5529 5528 5526 5525 5524 5523 5521 5520 5518 5517 5516 5515 5514 5513 5512 5510 5509 5509 5508 5507 5506 5505
5611 5610 5609 5608 5606 5605 5604 5603 5601 5600 5598 5597 5596 5594 5593 5592 5590 5589 5588 5587 5585 5584 5583 5582 5581 5579 5578 5577 5576 5575 5574 5572 5571 5569 5568 5566 5564 5563 5562 5561 5559 5558 5556 5554 5553 5552 5550 5548 5547 5545 5543 5542 5542 5541 5540 5539 5538 5536 5535 5533 5531 5528 5527 5525 5524 5522 5521 5519 5518 5516 5515 5514 5513 5511 5510 5509 5508 5506 5505 5504 5503 5503 5502 5501 5500 5500
5608 5607 5606 5604 5603 5602 5601 5599 5598 5597 5595 5594 5592 5591 5590 5588 5587 5586 5585 5583 5582 5581 5579 5578 5577 5576 5575 5573 5572 5571 5570 5568 5567 5566 5564 5562 5561 5559 5558 5556 5555 5554 5552 5550 5548 5547 5545 5543 5542 5541 5539 5537 5536 5535 5534 5533 5532 5531 5530 5528 5526 5524 5522 5520 5518 5517 5515 5513 5512 5511 5509 5508 5507 5505 5504 5503 5501 5500 5499 5498 5497 5497 5496 5495 5495 5494
5604 5603 5602 5601 5600 5598 5597 5596 5595 5593 5592 5590 5589 5588 5586 5585 5584 5583 5581 5580 5578 5577 5576 5575 5573 5572 5571 5570 5568 5567 5566 5564 5563 5562 5560 5558 5557 5555 5553 5552 5551 5549 5548 5545 5544 5542 5540 5538 5537 5536 5534 5532 5531 5529 5528 5528 5527 5526 5524 5523 5522 5519 5517 5515 5513 5511 5509 5508 5506 5505 5504 5502 5501 5499 5498 5497 5495 5494 5493 5492 5491 5490 5490 5489 5489 5488
5601 5600 5599 5598 5596 5595 5594 5593 5591 5590 5588 5587 5585 5584 5583 5581 5580 5579 5578 5576 5575 5573 5572 5571 5570 5568 5567 5566 5564 5563 5562 5560 5559 5558 5556 5554 5553 5551 5549 5548 5546 5545 5543 5541 5539 5538 5536 5534 5532 5531 5529 5528 5526 5524 5523 5522 5521 5520 5518 5518 5516 5514 5512 5510 5508 5506 5504 5503 5501 5500 5498 5497 5495 5494 5492 5491 5490 5488 5487 5486 5485 5485 5484 5484 5483 5483
5598 5597 5595 5594 5593 5592 5590 5589 5588 5586 5585 5583 5582 5580 5579 5578 5577 5575 5574 5573 5571 5570 5568 5567 5566 5565 5563 5562 5561 5559 5558 5556 5555 5553 5552 5550 5549 5547 5546 5543 5542 5540 5539 5537 5535 5533 5532 5530 5528 5526 5524 5523 5521 5519 5518 5516 5515 5514 5513 5511 5510 5509 5507 5505 5503 5502 5500 5498 5496 5494 5493 5492 5490 5488 5487 5486 5484 5483 5482 5481 5480 5479 5479 5478 5478 5478
5594 5593 5592 5591 5589 5588 5587 5585 5584 5583 5581 5580 5578 5577 5576 5574 5573 5572 5570 5569 5568 5566 5565 5563 5562 5561 5559 5558 5557 5555 5553 5552 5550 5549 5548 5546 5544 5543 5541 5539 5537 5535 5534 5532 5531 5529 5527 5525 5523 5522 5519 5518 5516 5514 5513 5511 5510 5508 5507 5505 5504 5503 5502 5500 5498 5496 5495 5493 5491 5489 5488 5487 5485 5483 5482 5480 5479 5478 5477 5476 5475 5474 5474 5473 5473 5473
5591 5590 5588 5587 5586 5584 5583 5582 5580 5579 5578 5576 5575 5573 5572 5571 5569 5568 5567 5565 5564 5563 5561 5560 5558 5557 5556 5554 5553 5551 5549 5548 5546 5545 5543 5541 5540 5538 5537 5535 5533 5531 5529 5527 5526 5524 5523 5521 5519 5517 5515 5513 5511 5509 5507 5506 5504 5503 5502 5500 5498 5497 5495 5494 5493 5491 5489 5488 5486 5485 5483 5482 5480 5479 5477 5476 5474 5473 5472 5471 5470 5469 5469 5469 5468 5468
5588 5586 5585 5583 5582 5581 5579 5578 5577 5575 5574 5573 5571 5570 5569 5568 5566 5564 5563 5562 5560 5559 5558 5556 5555 5553 5552 5550 5549 5548 5546 5544 5542 5541 5539 5537 5535 5533 5532 5530 5528 5526 5524 5522 5521 5519 5518 5516 5514 5513 5511 5509 5507 5504 5503 5501 5499 5498 5496 5494 5493 5491 5489 5488 5486 5485 5484 5482 5481 5480 5478 5477 5476 5474 5473 5471 5470 5468 5467 5466 5466 5465 5465 5464 5464 5464
5584 5583 5581 5580 5578 5577 5576 5574 5573 5572 5570 5569 5568 5566 5565 5564 5563 5561 5559 5558 5557 5555 5554 5553 5551 5549 5548 5546 5545 5544 5542 5540 5538 5536 5535 5533 5531 5529 5527 5525 5523 5521 5519 5518 5516 5514 5513 5512 5510 5508 5506 5504 5502 5500 5498 5496 5494 5493 5491 5489 5488 5486 5483 5482 5481 5479 5478 5476 5475 5474 5473 5472 5471 5470 5468 5467 5465 5464 5463 5462 5461 5461 5460 5460 5460 5460
5580 5579 5578 5576 5575 5573 5572 5571 5569 5568 5567 5565 5564 5563 5562 5560 5559 5557 5556 5554 5553 5552 5550 5549 5547 5546 5544 5543 5541 5540 5538 5536 5535 5533 5531 5528 5527 5525 5523 5521 5518 5517 5515 5513 5511 5510 5508 5507 5505 5503 5501 5499 5497 5495 5493 5491 5489 5488 5486 5484 5483 5481 5478 5477 5475 5473 5472 5471 5470 5469 5468 5467 5466 5465 5463 5462 5461 5460 5459 5458 5457 5457 5456 5456 5456 5455
5577 5575 5574 5573 5571 5570 5568 5567 5566 5564 5563 5562 5560 5559 5558 5556 5555 5553 5552 5551 5549 5548 5546 5545 5543 5542 5541 5539 5538 5536 5534 5532 5531 5529 5527 5525 5523 5520 5518 5516 5514 5512 5511 5509 5507 5505 5503 5502 5500 5498 5497 5494 5493 5491 5488 5487 5485 5483 5481 5479 5478 5476 5474 5472 5470 5468 5467 5465 5464 5463 5463 5462 5461 5459 5458 5457 5456 5455 5454 5453 5453 5453 5452 5452 5452 5451
5573 5572 5571 5569 5568 5567 5565 5564 5563 5561 5560 5558 5557 5555 5554 5553 5551 5550 5548 5547 5545 5544 5542 5541 5539 5538 5536 5535 5533 5532 5530 5528 5526 5524 5522 5520 5518 5516 5514 5512 5510 5508 5506 5504 5503 5501 5499 5497 5495 5493 5492 5490 5488 5486 5484 5482 5480 5478 5477 5475 5473 5471 5469 5467 5465 5463 5462 5460 5459 5458 5457 5456 5455 5454 5453 5452 5451 5451 5450 5449 5448 5448 5448 5448 5447 5447
5570 5569 5567 5566 5565 5563 5562 5560 5559 5558 5556 5555 5553 5552 5550 5548 5547 5546 5544 5543 5541 5539 5538 5537 5535 5533 5532 5530 5529 5527 5525 5523 5522 5520 5518 5516 5514 5512 5510 5508 5505 5503 5501 5499 5498 5496 5494 5493 5490 5488 5487 5485 5483 5482 5480 5478 5476 5474 5472 5470 5468 5466 5464 5462 5460 5458 5457 5456 5454 5453 5452 5451 5450 5449 5448 5448 5447 5446 5445 5444 5444 5443 5443 5443 5443 5443
5567 5565 5564 5563 5561 5560 5558 5557 5555 5554 5553 5551 5549 5548 5546 5545 5543 5542 5540 5538 5537 5536 5534 5532 5531 5529 5528 5526 5524 5523 5521 5518 5517 5515 5513 5511 5509 5507 5505 5503 5501 5499 5497 5495 5493 5491 5489 5488 5486 5484 5482 5480 5478 5477 5475 5473 5472 5469 5467 5465 5463 5462 5460 5458 5456 5454 5453 5451 5450 5448 5447 5446 5445 5445 5444 5443 5443 5442 5441 5440 5439 5439 5439 5438 5438 5438
5563 5562 5561 5559 5558 5557 5555 5553 5552 5550 5549 5548 5546 5544 5543 5541 5539 5538 5536 5534 5533 5532 5530 5528 5527 5525 5523 5522 5520 5518 5516 5514 5512 5510 5508 5506 5504 5503 5500 5498 5497 5495 5493 5491 5489 5487 5485 5483 5481 5479 5478 5476 5474 5472 5470 5469 5467 5465 5463 5461 5459 5457 5455 5453 5452 5450 5448 5447 5445 5444 5443 5442 5441 5440 5439 5439 5438 5438 5437 5436 5435 5435 5434 5434 5433 5433
5560 5558 5557 5556 5554 5553 5552 5550 5548 5547 5545 5544 5542 5540 5539 5537 5536 5534 5532 5530 5529 5527 5526 5524 5522 5520 5518 5517 5515 5513 5512 5509 5508 5505 5503 5502 5499 5498 5496 5494 5492 5490 5488 5487 5485 5483 5481 5479 5477 5475 5473 5471 5469 5468 5466 5464 5462 5460 5458 5456 5454 5453 5451 5449 5447 5445 5444 5442 5441 5440 5438 5438 5436 5436 5435 5435 5434 5433 5433 5432 5431 5430 5429 5429 5429 5428
5556 5555 5553 5552 5551 5549 5548 5546 5545 5543 5542 5540 5538 5537 5535 5533 5532 5530 5528 5526 5525 5523 5521 5519 5518 5516 5514 5512 5510 5509 5507 5505 5503 5500 5498 5497 5495 5493 5491 5489 5488 5486 5484 5482 5481 5479 5477 5475 5473 5471 5469 5467 5465 5463 5461 5459 5458 5456 5454 5452 5450 5448 5447 5445 5443 5441 5439 5438 5437 5435 5434 5433 5432 5431 5431 5430 5430 5429 5429 5428 5427 5426 5425 5424 5424 5424
5553 5551 5550 5548 5547 5545 5544 5542 5541 5539 5538 5536 5534 5533 5531 5529 5528 5526 5524 5523 5521 5519 5517 5515 5513 5511 5509 5507 5505 5504 5502 5500 5498 5495 5493 5492 5490 5488 5486 5484 5483 5481 5480 5478 5476 5475 5473 5471 5469 5467 5465 5463 5461 5459 5456 5454 5453 5451 5449 5448 5446 5444 5443 5441 5439 5437 5435 5434 5433 5431 5430 5429 5428 5427 5427 5426 5426 5425 5425 5424 5423 5422 5421 5420 5420 5419